Location: Caltech
(34.1382°N, 118.1253°W)
Time: 13:48:37
(UTC-07:00)

Oscar 19 - Visible Passes

Search period start: 29 March 2015 00:00
Search period end: 08 April 2015 00:00
Orbit: 774 x 791 km, 98.5° (Epoch: 29 March)

Date Brightness Start Highest point End Pass type
(mag) Time Alt. Az. Time Alt. Az. Time Alt. Az.
04 Apr 13.5 02:50:53 10° N 02:51:05 11° N 02:51:05 11° N visible
05 Apr 13.6 02:19:06 10° NNE 02:19:08 10° NNE 02:19:08 10° NNE visible
06 Apr 13.3 03:27:37 10° NNW 03:27:45 11° NNW 03:27:45 11° NNW visible
07 Apr 13.3 02:55:14 10° N 02:55:47 13° N 02:55:47 13° N visible
